| time (UTC) | temp F | wind direction | speed MPH | gust MPH | rain 1hr in | rain 24hr in | rain mn in | humidity % | barometer mb |
| 20260502214003 | 47 | 210 | 0.0 | 2.0 | 0.00 | 0.00 | 0.00 | 89 | 967.3 |
| 20260502213505 | 47 | 208 | 0.0 | 1.0 | 0.00 | 0.00 | 0.00 | 89 | 967.3 |
| 20260502213003 | 47 | 205 | 0.0 | 1.0 | 0.00 | 0.00 | 0.00 | 89 | 967.5 |
| 20260502212504 | 47 | 208 | 0.0 | 2.0 | 0.00 | 0.00 | 0.00 | 88 | 967.4 |
| 20260502212004 | 48 | 210 | 0.0 | 2.0 | 0.00 | 0.00 | 0.00 | 88 | 967.5 |
| 20260502211505 | 47 | 214 | 0.0 | 2.0 | 0.00 | 0.00 | 0.00 | 89 | 967.3 |
| 20260502211004 | 47 | 0 | 0.0 | 0.0 | 0.00 | 0.00 | 0.00 | 89 | 967.3 |
| 20260502210503 | 48 | 0 | 0.0 | 0.0 | 0.00 | 0.00 | 0.00 | 89 | 967.3 |
| 20260502205503 | 48 | 0 | 0.0 | 0.0 | 0.00 | 0.00 | 0.00 | 89 | 967.3 |
| 20260502205003 | 48 | 0 | 0.0 | 0.0 | 0.00 | 0.00 | 0.00 | 88 | 967.3 |
| 20260502204714 | 48 | 0 | 0.0 | 0.0 | 0.00 | 0.00 | 0.00 | 88 | 967.1 |
| 20260502204003 | 48 | 196 | 0.0 | 2.0 | 0.00 | 0.00 | 0.00 | 88 | 967.2 |
| 20260502203503 | 49 | 208 | 0.0 | 2.0 | 0.00 | 0.00 | 0.00 | 87 | 967.4 |
| 20260502203005 | 49 | 208 | 0.0 | 2.0 | 0.00 | 0.00 | 0.00 | 87 | 967.4 |
| 20260502202503 | 49 | 205 | 0.0 | 2.0 | 0.00 | 0.00 | 0.00 | 86 | 967.2 |
| 20260502202215 | 49 | 207 | 1.0 | 3.0 | 0.00 | 0.00 | 0.00 | 86 | 967.3 |
| 20260502201503 | 49 | 210 | 0.0 | 3.0 | 0.00 | 0.00 | 0.00 | 86 | 967.6 |
| 20260502201003 | 49 | 206 | 0.0 | 1.0 | 0.00 | 0.00 | 0.00 | 86 | 967.2 |
| 20260502200505 | 49 | 207 | 0.0 | 2.0 | 0.00 | 0.00 | 0.00 | 86 | 967.2 |
| 20260502195503 | 50 | 189 | 1.0 | 3.0 | 0.00 | 0.00 | 0.00 | 84 | 967.3 |
| 20260502195005 | 50 | 197 | 0.0 | 3.0 | 0.00 | 0.00 | 0.00 | 84 | 967.2 |
| 20260502194503 | 50 | 198 | 0.0 | 3.0 | 0.00 | 0.00 | 0.00 | 85 | 967.1 |
| 20260502194005 | 51 | 192 | 1.0 | 3.0 | 0.00 | 0.00 | 0.00 | 85 | 967.3 |
| 20260502193503 | 51 | 193 | 0.0 | 3.0 | 0.00 | 0.00 | 0.00 | 82 | 967.1 |
| 20260502193003 | 51 | 198 | 0.0 | 2.0 | 0.00 | 0.00 | 0.00 | 83 | 967.0 |
| 20260502192715 | 51 | 199 | 0.0 | 2.0 | 0.00 | 0.00 | 0.00 | 83 | 967.0 |
| 20260502192003 | 51 | 209 | 1.0 | 2.0 | 0.00 | 0.00 | 0.00 | 83 | 967.1 |
| 20260502191503 | 51 | 207 | 0.0 | 2.0 | 0.00 | 0.00 | 0.00 | 84 | 967.0 |
| 20260502191005 | 51 | 212 | 1.0 | 2.0 | 0.00 | 0.00 | 0.00 | 83 | 967.0 |
| 20260502190503 | 52 | 214 | 0.0 | 2.0 | 0.00 | 0.00 | 0.00 | 83 | 966.9 |
| 20260502185505 | 52 | 201 | 0.0 | 2.0 | 0.00 | 0.00 | 0.00 | 83 | 967.0 |
| 20260502185003 | 52 | 200 | 0.0 | 2.0 | 0.00 | 0.00 | 0.00 | 83 | 967.0 |
| 20260502184713 | 52 | 201 | 0.0 | 2.0 | 0.00 | 0.00 | 0.00 | 83 | 967.0 |
| 20260502184005 | 52 | 183 | 0.0 | 2.0 | 0.00 | 0.00 | 0.00 | 82 | 966.8 |
| 20260502183503 | 53 | 176 | 0.0 | 2.0 | 0.00 | 0.00 | 0.00 | 83 | 966.9 |
| 20260502183005 | 53 | 191 | 0.0 | 2.0 | 0.00 | 0.00 | 0.00 | 83 | 966.5 |
| 20260502182503 | 53 | 223 | 0.0 | 1.0 | 0.00 | 0.00 | 0.00 | 83 | 966.8 |
| 20260502182003 | 53 | 211 | 0.0 | 1.0 | 0.00 | 0.00 | 0.00 | 83 | 966.7 |
| 20260502181505 | 53 | 209 | 0.0 | 2.0 | 0.00 | 0.00 | 0.00 | 83 | 966.9 |
| 20260502181003 | 54 | 209 | 0.0 | 2.0 | 0.00 | 0.00 | 0.00 | 82 | 966.8 |
| 20260502180503 | 54 | 206 | 0.0 | 2.0 | 0.00 | 0.00 | 0.00 | 81 | 966.7 |
| 20260502170503 | 58 | 215 | 1.0 | 2.0 | 0.00 | 0.00 | 0.00 | 74 | 966.6 |
| 20260502164003 | 63 | 215 | 1.0 | 4.0 | 0.00 | 0.00 | 0.00 | 61 | 966.5 |
| 20260502163503 | 64 | 208 | 1.0 | 4.0 | 0.00 | 0.00 | 0.00 | 56 | 966.6 |
| 20260502163005 | 66 | 200 | 1.0 | 3.0 | 0.00 | 0.00 | 0.00 | 56 | 966.6 |
| 20260502162714 | 68 | 202 | 1.0 | 3.0 | 0.00 | 0.00 | 0.00 | 49 | 966.5 |
| 20260502162003 | 71 | 205 | 1.0 | 3.0 | 0.00 | 0.00 | 0.00 | 40 | 966.5 |
| 20260502161505 | 72 | 201 | 1.0 | 4.0 | 0.00 | 0.00 | 0.00 | 39 | 966.6 |
| 20260502161003 | 72 | 204 | 1.0 | 4.0 | 0.00 | 0.00 | 0.00 | 40 | 966.7 |
| 20260502160505 | 72 | 208 | 1.0 | 3.0 | 0.00 | 0.00 | 0.00 | 39 | 966.8 |
| 20260502152005 | 73 | 209 | 1.0 | 4.0 | 0.00 | 0.00 | 0.00 | 37 | 967.0 |
| 20260502151503 | 73 | 210 | 1.0 | 4.0 | 0.00 | 0.00 | 0.00 | 36 | 967.2 |
| 20260502151005 | 74 | 290 | 1.0 | 6.0 | 0.00 | 0.00 | 0.00 | 35 | 967.3 |
| 20260502150503 | 73 | 231 | 2.0 | 8.0 | 0.00 | 0.00 | 0.00 | 40 | 967.0 |
| 20260502130505 | 71 | 260 | 2.0 | 10.0 | 0.00 | 0.00 | 0.00 | 42 | 968.2 |
| 20260502123503 | 71 | 204 | 2.0 | 8.0 | 0.00 | 0.00 | 0.00 | 39 | 968.6 |
| 20260502123005 | 71 | 229 | 1.0 | 3.0 | 0.00 | 0.00 | 0.00 | 41 | 968.7 |
| 20260502122713 | 71 | 219 | 2.0 | 6.0 | 0.00 | 0.00 | 0.00 | 39 | 968.9 |
| 20260502122003 | 70 | 205 | 3.0 | 8.0 | 0.00 | 0.00 | 0.00 | 41 | 968.8 |
| 20260502121505 | 70 | 205 | 2.0 | 8.0 | 0.00 | 0.00 | 0.00 | 41 | 968.7 |
| 20260502121004 | 70 | 212 | 2.0 | 7.0 | 0.00 | 0.00 | 0.00 | 42 | 968.8 |
| 20260502120713 | 70 | 228 | 2.0 | 7.0 | 0.00 | 0.00 | 0.00 | 41 | 968.9 |
| 20260502115503 | 69 | 208 | 2.0 | 7.0 | 0.00 | 0.00 | 0.00 | 42 | 969.1 |
| 20260502115003 | 69 | 202 | 2.0 | 7.0 | 0.00 | 0.00 | 0.00 | 43 | 969.0 |
| 20260502114505 | 69 | 207 | 2.0 | 7.0 | 0.00 | 0.00 | 0.00 | 42 | 969.1 |
| 20260502114003 | 69 | 212 | 2.0 | 7.0 | 0.00 | 0.00 | 0.00 | 43 | 969.1 |
| 20260502113505 | 69 | 200 | 2.0 | 7.0 | 0.00 | 0.00 | 0.00 | 43 | 969.3 |
| 20260502113004 | 68 | 268 | 2.0 | 7.0 | 0.00 | 0.00 | 0.00 | 43 | 969.4 |
| 20260502112505 | 68 | 306 | 2.0 | 7.0 | 0.00 | 0.00 | 0.00 | 43 | 969.4 |
| 20260502112003 | 68 | 293 | 2.0 | 7.0 | 0.00 | 0.00 | 0.00 | 43 | 969.3 |
| 20260502111503 | 69 | 250 | 1.0 | 4.0 | 0.00 | 0.00 | 0.00 | 43 | 969.4 |
| 20260502111005 | 68 | 262 | 1.0 | 4.0 | 0.00 | 0.00 | 0.00 | 43 | 969.6 |
| 20260502110503 | 69 | 264 | 1.0 | 3.0 | 0.00 | 0.00 | 0.00 | 41 | 969.5 |
| 20260502105503 | 68 | 234 | 2.0 | 7.0 | 0.00 | 0.00 | 0.00 | 43 | 969.8 |
| 20260502105005 | 68 | 272 | 1.0 | 4.0 | 0.00 | 0.00 | 0.00 | 42 | 969.8 |
| 20260502104503 | 69 | 277 | 1.0 | 4.0 | 0.00 | 0.00 | 0.00 | 45 | 969.8 |
| 20260502104005 | 68 | 300 | 2.0 | 6.0 | 0.00 | 0.00 | 0.00 | 44 | 969.8 |
| 20260502103503 | 68 | 248 | 2.0 | 6.0 | 0.00 | 0.00 | 0.00 | 45 | 969.9 |
| 20260502103213 | 67 | 223 | 2.0 | 6.0 | 0.00 | 0.00 | 0.00 | 44 | 970.1 |
| 20260502102505 | 67 | 211 | 2.0 | 6.0 | 0.00 | 0.00 | 0.00 | 45 | 970.1 |
| 20260502102003 | 67 | 227 | 1.0 | 6.0 | 0.00 | 0.00 | 0.00 | 44 | 970.0 |
| 20260502101503 | 69 | 144 | 1.0 | 6.0 | 0.00 | 0.00 | 0.00 | 46 | 970.1 |
| 20260502101005 | 68 | 308 | 1.0 | 6.0 | 0.00 | 0.00 | 0.00 | 46 | 970.3 |
| 20260502100503 | 67 | 294 | 1.0 | 6.0 | 0.00 | 0.00 | 0.00 | 45 | 970.4 |
| 20260502091503 | 66 | 231 | 1.0 | 6.0 | 0.00 | 0.00 | 0.00 | 43 | 971.0 |
| 20260502091003 | 67 | 238 | 1.0 | 4.0 | 0.00 | 0.00 | 0.00 | 45 | 970.9 |
| 20260502090505 | 66 | 257 | 1.0 | 4.0 | 0.00 | 0.00 | 0.00 | 43 | 970.8 |
| 20260502071505 | 51 | 0 | 0.0 | 0.0 | 0.00 | 0.00 | 0.00 | 74 | 971.7 |
| 20260502071004 | 51 | 0 | 0.0 | 0.0 | 0.00 | 0.00 | 0.00 | 74 | 971.8 |
| 20260502070505 | 50 | 0 | 0.0 | 0.0 | 0.00 | 0.00 | 0.00 | 76 | 971.7 |
| 20260502065713 | 49 | 0 | 0.0 | 0.0 | 0.00 | 0.00 | 0.00 | 77 | 971.9 |
| 20260502065005 | 49 | 0 | 0.0 | 0.0 | 0.00 | 0.00 | 0.00 | 78 | 971.9 |
| 20260502064503 | 48 | 0 | 0.0 | 0.0 | 0.00 | 0.00 | 0.00 | 81 | 971.9 |
| 20260502064003 | 46 | 0 | 0.0 | 0.0 | 0.00 | 0.00 | 0.00 | 83 | 971.9 |
| 20260502063715 | 46 | 0 | 0.0 | 0.0 | 0.00 | 0.00 | 0.00 | 86 | 971.8 |
| 20260502063003 | 45 | 0 | 0.0 | 0.0 | 0.00 | 0.00 | 0.00 | 89 | 972.1 |
| 20260502062504 | 44 | 0 | 0.0 | 0.0 | 0.00 | 0.00 | 0.00 | 89 | 972.0 |
| 20260502062003 | 44 | 0 | 0.0 | 0.0 | 0.00 | 0.00 | 0.00 | 91 | 971.9 |
| 20260502061505 | 43 | 0 | 0.0 | 0.0 | 0.00 | 0.00 | 0.00 | 94 | 972.0 |
| 20260502061003 | 42 | 0 | 0.0 | 0.0 | 0.00 | 0.00 | 0.00 | 94 | 971.9 |
| 20260502060503 | 42 | 0 | 0.0 | 0.0 | 0.00 | 0.00 | 0.00 | 94 | 972.1 |
| 20260502055503 | 41 | 0 | 0.0 | 0.0 | 0.00 | 0.00 | 0.00 | 96 | 972.0 |
| 20260502055003 | 40 | 0 | 0.0 | 0.0 | 0.00 | 0.00 | 0.00 | 97 | 972.2 |
| 20260502054505 | 40 | 0 | 0.0 | 0.0 | 0.00 | 0.00 | 0.00 | 97 | 972.1 |
| 20260502054003 | 40 | 0 | 0.0 | 0.0 | 0.00 | 0.00 | 0.00 | 97 | 972.2 |
| 20260502053503 | 39 | 0 | 0.0 | 0.0 | 0.00 | 0.00 | 0.00 | 97 | 972.3 |
| 20260502053215 | 39 | 0 | 0.0 | 0.0 | 0.00 | 0.00 | 0.00 | 97 | 972.3 |
| 20260502052503 | 39 | 0 | 0.0 | 0.0 | 0.00 | 0.00 | 0.00 | 97 | 972.2 |
| 20260502052003 | 38 | 0 | 0.0 | 0.0 | 0.00 | 0.00 | 0.00 | 97 | 972.1 |
| 20260502051716 | 38 | 0 | 0.0 | 0.0 | 0.00 | 0.00 | 0.00 | 97 | 972.3 |
| 20260502051003 | 38 | 0 | 0.0 | 0.0 | 0.00 | 0.00 | 0.00 | 97 | 972.1 |
| 20260502050503 | 38 | 0 | 0.0 | 0.0 | 0.00 | 0.00 | 0.00 | 97 | 972.3 |
| 20260502045503 | 38 | 0 | 0.0 | 0.0 | 0.00 | 0.00 | 0.00 | 97 | 972.3 |
| 20260502045003 | 38 | 0 | 0.0 | 0.0 | 0.00 | 0.00 | 0.00 | 97 | 972.1 |
| 20260502044505 | 37 | 0 | 0.0 | 0.0 | 0.00 | 0.00 | 0.00 | 97 | 972.2 |
| 20260502044003 | 38 | 0 | 0.0 | 0.0 | 0.00 | 0.00 | 0.00 | 97 | 972.2 |
| 20260502043714 | 37 | 0 | 0.0 | 0.0 | 0.00 | 0.00 | 0.00 | 97 | 972.2 |
| 20260502043005 | 37 | 0 | 0.0 | 0.0 | 0.00 | 0.00 | 0.00 | 97 | 972.2 |
| 20260502042714 | 37 | 0 | 0.0 | 0.0 | 0.00 | 0.00 | 0.00 | 97 | 972.3 |
| 20260502042003 | 37 | 211 | 0.0 | 2.0 | 0.00 | 0.00 | 0.00 | 97 | 972.3 |
| 20260502041716 | 37 | 211 | 0.0 | 2.0 | 0.00 | 0.00 | 0.00 | 97 | 972.3 |
| 20260502041003 | 37 | 0 | 0.0 | 0.0 | 0.00 | 0.00 | 0.00 | 97 | 972.3 |
| 20260502040503 | 37 | 211 | 0.0 | 2.0 | 0.00 | 0.00 | 0.00 | 97 | 972.3 |
| 20260502035503 | 37 | 0 | 0.0 | 0.0 | 0.00 | 0.00 | 0.00 | 97 | 972.1 |
| 20260502035003 | 37 | 211 | 0.0 | 1.0 | 0.00 | 0.00 | 0.00 | 97 | 972.1 |
| 20260502034504 | 37 | 211 | 0.0 | 1.0 | 0.00 | 0.00 | 0.00 | 97 | 971.9 |
| 20260502034003 | 37 | 0 | 0.0 | 0.0 | 0.00 | 0.00 | 0.00 | 97 | 972.0 |
| 20260502033505 | 37 | 0 | 0.0 | 0.0 | 0.00 | 0.00 | 0.00 | 97 | 971.9 |
| 20260502033003 | 37 | 0 | 0.0 | 0.0 | 0.00 | 0.00 | 0.00 | 96 | 972.0 |
| 20260502032503 | 37 | 211 | 0.0 | 1.0 | 0.00 | 0.00 | 0.00 | 96 | 972.0 |
| 20260502032005 | 38 | 211 | 0.0 | 1.0 | 0.00 | 0.00 | 0.00 | 96 | 972.1 |
| 20260502031503 | 37 | 0 | 0.0 | 0.0 | 0.00 | 0.00 | 0.00 | 96 | 972.1 |
| 20260502031003 | 38 | 211 | 0.0 | 1.0 | 0.00 | 0.00 | 0.00 | 96 | 972.1 |
| 20260502030505 | 38 | 211 | 0.0 | 1.0 | 0.00 | 0.00 | 0.00 | 96 | 972.1 |
| 20260502025715 | 38 | 0 | 0.0 | 0.0 | 0.00 | 0.00 | 0.00 | 96 | 972.2 |
| 20260502025003 | 38 | 210 | 0.0 | 2.0 | 0.00 | 0.00 | 0.00 | 96 | 972.1 |
| 20260502024505 | 38 | 210 | 0.0 | 2.0 | 0.00 | 0.00 | 0.00 | 96 | 972.3 |
| 20260502024003 | 38 | 0 | 0.0 | 0.0 | 0.00 | 0.00 | 0.00 | 96 | 972.1 |
| 20260502023503 | 38 | 208 | 0.0 | 1.0 | 0.00 | 0.00 | 0.00 | 96 | 972.3 |
| 20260502023005 | 38 | 208 | 0.0 | 1.0 | 0.00 | 0.00 | 0.00 | 96 | 972.2 |
| 20260502022503 | 38 | 207 | 0.0 | 2.0 | 0.00 | 0.00 | 0.00 | 96 | 972.2 |
| 20260502022214 | 38 | 204 | 0.0 | 2.0 | 0.00 | 0.00 | 0.00 | 96 | 972.1 |
| 20260502021505 | 38 | 202 | 0.0 | 2.0 | 0.00 | 0.00 | 0.00 | 96 | 972.3 |
| 20260502021214 | 38 | 203 | 0.0 | 1.0 | 0.00 | 0.00 | 0.00 | 96 | 972.2 |
| 20260502020503 | 38 | 203 | 0.0 | 1.0 | 0.00 | 0.00 | 0.00 | 96 | 972.3 |
| 20260502015503 | 38 | 200 | 0.0 | 2.0 | 0.00 | 0.00 | 0.00 | 96 | 972.1 |
| 20260502015003 | 38 | 0 | 0.0 | 0.0 | 0.00 | 0.00 | 0.00 | 95 | 972.2 |
| 20260502014715 | 38 | 0 | 0.0 | 0.0 | 0.00 | 0.00 | 0.00 | 95 | 972.1 |
| 20260502014214 | 38 | 0 | 0.0 | 0.0 | 0.00 | 0.00 | 0.00 | 95 | 972.3 |
| 20260502013503 | 38 | 0 | 0.0 | 0.0 | 0.00 | 0.00 | 0.00 | 95 | 972.2 |
| 20260502013005 | 38 | 210 | 0.0 | 2.0 | 0.00 | 0.00 | 0.00 | 95 | 972.3 |
| 20260502012503 | 38 | 210 | 0.0 | 2.0 | 0.00 | 0.00 | 0.00 | 95 | 972.3 |
| 20260502012213 | 38 | 210 | 0.0 | 2.0 | 0.00 | 0.00 | 0.00 | 95 | 972.2 |
| 20260502011505 | 38 | 0 | 0.0 | 0.0 | 0.00 | 0.00 | 0.00 | 95 | 972.3 |
| 20260502011003 | 38 | 0 | 0.0 | 0.0 | 0.00 | 0.00 | 0.00 | 95 | 972.2 |
| 20260502010505 | 38 | 0 | 0.0 | 0.0 | 0.00 | 0.00 | 0.00 | 95 | 972.3 |
| 20260502005503 | 39 | 0 | 0.0 | 0.0 | 0.00 | 0.00 | 0.00 | 95 | 972.4 |
| 20260502005005 | 39 | 0 | 0.0 | 0.0 | 0.00 | 0.00 | 0.00 | 94 | 972.6 |
| 20260502004503 | 39 | 0 | 0.0 | 0.0 | 0.00 | 0.00 | 0.00 | 95 | 972.5 |
| 20260502004003 | 39 | 0 | 0.0 | 0.0 | 0.00 | 0.00 | 0.00 | 94 | 972.5 |
| 20260502003505 | 39 | 0 | 0.0 | 0.0 | 0.00 | 0.00 | 0.00 | 94 | 972.7 |
| 20260502003003 | 39 | 0 | 0.0 | 0.0 | 0.00 | 0.00 | 0.00 | 94 | 972.8 |
| 20260502002503 | 39 | 0 | 0.0 | 0.0 | 0.00 | 0.00 | 0.00 | 94 | 972.8 |
| 20260502002005 | 39 | 0 | 0.0 | 0.0 | 0.00 | 0.00 | 0.00 | 94 | 972.7 |
| 20260502001714 | 39 | 0 | 0.0 | 0.0 | 0.00 | 0.00 | 0.00 | 94 | 972.7 |
| 20260502001215 | 39 | 0 | 0.0 | 0.0 | 0.00 | 0.00 | 0.00 | 94 | 972.8 |
| 20260502000503 | 39 | 0 | 0.0 | 0.0 | 0.00 | 0.00 | 0.00 | 94 | 972.8 |
| 20260501235503 | 39 | 210 | 0.0 | 1.0 | 0.00 | 0.00 | 0.00 | 93 | 972.9 |
| 20260501235003 | 39 | 0 | 0.0 | 0.0 | 0.00 | 0.00 | 0.00 | 93 | 973.0 |
| 20260501234505 | 39 | 0 | 0.0 | 0.0 | 0.00 | 0.00 | 0.00 | 93 | 972.8 |
| 20260501234003 | 39 | 0 | 0.0 | 0.0 | 0.00 | 0.00 | 0.00 | 93 | 973.0 |
| 20260501233503 | 39 | 0 | 0.0 | 0.0 | 0.00 | 0.00 | 0.00 | 93 | 972.9 |
| 20260501233005 | 39 | 0 | 0.0 | 0.0 | 0.00 | 0.00 | 0.00 | 93 | 972.8 |
| 20260501232503 | 40 | 0 | 0.0 | 0.0 | 0.00 | 0.00 | 0.00 | 93 | 973.0 |
| 20260501232005 | 40 | 0 | 0.0 | 0.0 | 0.00 | 0.00 | 0.00 | 93 | 972.7 |
| 20260501231503 | 40 | 0 | 0.0 | 0.0 | 0.00 | 0.00 | 0.00 | 93 | 973.1 |
| 20260501231003 | 40 | 0 | 0.0 | 0.0 | 0.00 | 0.00 | 0.00 | 93 | 973.0 |
| 20260501230505 | 40 | 0 | 0.0 | 0.0 | 0.00 | 0.00 | 0.00 | 92 | 973.3 |
| 20260501225716 | 40 | 0 | 0.0 | 0.0 | 0.00 | 0.00 | 0.00 | 92 | 973.0 |
| 20260501225212 | 40 | 0 | 0.0 | 0.0 | 0.00 | 0.00 | 0.00 | 93 | 973.2 |
| 20260501224503 | 40 | 0 | 0.0 | 0.0 | 0.00 | 0.00 | 0.00 | 92 | 973.2 |
| 20260501224005 | 40 | 0 | 0.0 | 0.0 | 0.00 | 0.00 | 0.00 | 92 | 973.2 |
| 20260501223503 | 40 | 0 | 0.0 | 0.0 | 0.00 | 0.00 | 0.00 | 92 | 973.0 |
| 20260501223005 | 40 | 0 | 0.0 | 0.0 | 0.00 | 0.00 | 0.00 | 92 | 973.1 |
| 20260501222503 | 40 | 0 | 0.0 | 0.0 | 0.00 | 0.00 | 0.00 | 91 | 973.0 |
| 20260501222003 | 40 | 0 | 0.0 | 0.0 | 0.00 | 0.00 | 0.00 | 92 | 973.1 |
| 20260501221505 | 40 | 0 | 0.0 | 0.0 | 0.00 | 0.00 | 0.00 | 92 | 973.2 |
| 20260501221003 | 40 | 0 | 0.0 | 0.0 | 0.00 | 0.00 | 0.00 | 92 | 973.0 |
| 20260501220503 | 41 | 0 | 0.0 | 0.0 | 0.00 | 0.00 | 0.00 | 91 | 973.2 |
| 20260501215503 | 41 | 0 | 0.0 | 0.0 | 0.00 | 0.00 | 0.00 | 91 | 973.1 |
| 20260501215214 | 41 | 0 | 0.0 | 0.0 | 0.00 | 0.00 | 0.00 | 91 | 973.3 |
| 20260501214504 | 41 | 210 | 0.0 | 1.0 | 0.00 | 0.00 | 0.00 | 91 | 973.1 |